Big Bear Station Historical Data
Daily Summary for August 24, 2017 Units:  English    Metric   Both
« Previous Day
Next Day »
Daily Weekly Monthly Yearly Custom
  High: Low: Average:
Temperature: 81.7 °F 48.6 °F 63.5 °F
Dew Point: 53.5 °F 40.0 °F 47 °F
Humidity: 89 % 32 % 58 %
Wind Speed: 6.3 mph 0.0 mph 1.5 mph
Wind Gust: -999.0 mph - -
Wind:- - WNW
Pressure: 30.21 in 30.13 in -
Precipitation: 0.00 in    
Historical Graphs
 
 
Tabular Data for August 24, 2017
Time Temperature Dew Point Pressure Wind Wind Speed Wind Gust Humidity Rainfall Rate (Hourly)
00:10 53.2 °F 42.1 °F 30.21 in Calm   -999.0 mph 66 % 0 in
00:25 53.1 °F 40.8 °F 30.21 in Calm   -999.0 mph 63 % 0 in
00:40 52.7 °F 40.0 °F 30.21 in Calm   -999.0 mph 62 % 0 in
00:56 52.5 °F 40.7 °F 30.21 in Calm   -999.0 mph 64 % 0 in
01:11 52.3 °F 43.2 °F 30.21 in Calm   -999.0 mph 71 % 0 in
01:26 51.8 °F 43.4 °F 30.21 in Calm   -999.0 mph 73 % 0 in
01:41 51.4 °F 41.6 °F 30.20 in Calm   -999.0 mph 69 % 0 in
01:56 51.3 °F 41.1 °F 30.20 in Calm   -999.0 mph 68 % 0 in
02:12 51.1 °F 42.0 °F 30.20 in Calm   -999.0 mph 71 % 0 in
02:27 50.9 °F 42.6 °F 30.20 in Calm   -999.0 mph 73 % 0 in
02:42 50.7 °F 42.7 °F 30.20 in Calm   -999.0 mph 74 % 0 in
02:57 50.4 °F 43.5 °F 30.20 in Calm   -999.0 mph 77 % 0 in
03:13 50.5 °F 43.9 °F 30.20 in Calm   -999.0 mph 78 % 0 in
03:28 50.0 °F 44.1 °F 30.20 in Calm   -999.0 mph 80 % 0 in
03:58 49.6 °F 43.7 °F 30.19 in Calm   -999.0 mph 80 % 0 in
04:13 49.5 °F 43.6 °F 30.19 in Calm   -999.0 mph 80 % 0 in
04:29 49.3 °F 44.4 °F 30.19 in Calm   -999.0 mph 83 % 0 in
04:44 49.1 °F 44.2 °F 30.19 in Calm   -999.0 mph 83 % 0 in
04:59 48.9 °F 44.0 °F 30.19 in Calm   -999.0 mph 83 % 0 in
05:14 48.7 °F 44.1 °F 30.19 in Calm   -999.0 mph 84 % 0 in
05:29 48.9 °F 44.3 °F 30.19 in Calm   -999.0 mph 84 % 0 in
05:45 48.7 °F 44.4 °F 30.20 in Calm   -999.0 mph 85 % 0 in
06:00 48.7 °F 44.4 °F 30.20 in Calm   -999.0 mph 85 % 0 in
06:15 48.6 °F 44.6 °F 30.20 in Calm   -999.0 mph 86 % 0 in
06:30 48.7 °F 44.7 °F 30.20 in Calm   -999.0 mph 86 % 0 in
06:45 48.9 °F 44.9 °F 30.20 in Calm   -999.0 mph 86 % 0 in
07:01 49.3 °F 45.6 °F 30.20 in Calm   -999.0 mph 87 % 0 in
07:16 49.6 °F 45.9 °F 30.20 in Calm   -999.0 mph 87 % 0 in
07:31 49.8 °F 45.8 °F 30.20 in Calm   -999.0 mph 86 % 0 in
07:46 50.5 °F 47.4 °F 30.20 in Calm   -999.0 mph 89 % 0 in
08:01 52.3 °F 48.5 °F 30.20 in Calm   -999.0 mph 87 % 0 in
08:17 53.4 °F 49.9 °F 30.20 in Calm   -999.0 mph 88 % 0 in
08:32 55.6 °F 50.8 °F 30.20 in Calm   -999.0 mph 84 % 0 in
08:47 57.9 °F 51.1 °F 30.20 in Calm   -999.0 mph 78 % 0 in
09:02 60.4 °F 52.1 °F 30.20 in NW 2.7 mph -999.0 mph 74 % 0 in
09:18 63.5 °F 53.5 °F 30.20 in NNW 2.7 mph -999.0 mph 70 % 0 in
09:33 65.7 °F 52.3 °F 30.20 in NNW 3.2 mph -999.0 mph 62 % 0 in
09:48 66.4 °F 52.1 °F 30.21 in Calm   -999.0 mph 60 % 0 in
10:03 67.1 °F 51.8 °F 30.20 in North 2.2 mph -999.0 mph 58 % 0 in
10:18 70.2 °F 52.3 °F 30.21 in NNW 3.2 mph -999.0 mph 53 % 0 in
10:34 69.6 °F 51.2 °F 30.21 in WNW 4.7 mph -999.0 mph 52 % 0 in
10:49 69.4 °F 50.0 °F 30.21 in Calm   -999.0 mph 50 % 0 in
11:04 71.1 °F 49.9 °F 30.21 in ENE 1.1 mph -999.0 mph 47 % 0 in
11:19 72.1 °F 50.2 °F 30.21 in WNW 4.7 mph -999.0 mph 46 % 0 in
11:34 73.8 °F 49.3 °F 30.20 in NE 2.2 mph -999.0 mph 42 % 0 in
11:50 73.4 °F 48.9 °F 30.20 in SW 3.7 mph -999.0 mph 42 % 0 in
12:05 73.8 °F 50.5 °F 30.20 in NNW 1.7 mph -999.0 mph 44 % 0 in
12:20 75.9 °F 52.4 °F 30.19 in NNW 5.3 mph -999.0 mph 44 % 0 in
12:35 78.1 °F 51.8 °F 30.19 in North 3.2 mph -999.0 mph 40 % 0 in
12:50 77.9 °F 53.0 °F 30.19 in NNW 4.7 mph -999.0 mph 42 % 0 in
13:06 75.2 °F 51.8 °F 30.19 in NW 5.8 mph -999.0 mph 44 % 0 in
13:21 77.2 °F 51.0 °F 30.18 in North 3.2 mph -999.0 mph 40 % 0 in
13:36 77.4 °F 50.5 °F 30.18 in NNW 6.3 mph -999.0 mph 39 % 0 in
13:51 76.3 °F 48.8 °F 30.18 in West 2.7 mph -999.0 mph 38 % 0 in
14:07 80.2 °F 49.3 °F 30.17 in NW 6.3 mph -999.0 mph 34 % 0 in
14:22 77.0 °F 47.3 °F 30.17 in NW 5.8 mph -999.0 mph 35 % 0 in
14:37 79.3 °F 48.5 °F 30.17 in WNW 4.2 mph -999.0 mph 34 % 0 in
14:52 80.1 °F 47.6 °F 30.16 in North 1.1 mph -999.0 mph 32 % 0 in
15:07 79.7 °F 49.6 °F 30.16 in NNW 2.7 mph -999.0 mph 35 % 0 in
15:23 77.0 °F 47.3 °F 30.16 in NW 2.7 mph -999.0 mph 35 % 0 in
15:39 78.4 °F 49.2 °F 30.15 in NW 5.3 mph -999.0 mph 36 % 0 in
15:54 78.4 °F 46.9 °F 30.15 in NW 1.7 mph -999.0 mph 33 % 0 in
16:09 79.5 °F 50.2 °F 30.14 in NW 3.7 mph -999.0 mph 36 % 0 in
16:24 79.0 °F 50.5 °F 30.14 in WNW 3.7 mph -999.0 mph 37 % 0 in
16:40 78.3 °F 49.2 °F 30.14 in NNW 2.7 mph -999.0 mph 36 % 0 in
16:55 79.9 °F 49.8 °F 30.14 in NNW 2.2 mph -999.0 mph 35 % 0 in
17:10 81.7 °F 52.9 °F 30.14 in WNW 4.2 mph -999.0 mph 37 % 0 in
17:25 80.4 °F 50.3 °F 30.14 in NW 5.3 mph -999.0 mph 35 % 0 in
17:41 81.7 °F 51.4 °F 30.14 in NW 2.7 mph -999.0 mph 35 % 0 in
17:57 80.8 °F 51.4 °F 30.13 in West 2.7 mph -999.0 mph 36 % 0 in
18:12 79.9 °F 51.3 °F 30.13 in NW 4.2 mph -999.0 mph 37 % 0 in
18:28 76.5 °F 51.1 °F 30.13 in South 1.7 mph -999.0 mph 41 % 0 in
18:43 72.7 °F 48.3 °F 30.13 in NNW 3.7 mph -999.0 mph 42 % 0 in
18:59 71.4 °F 49.0 °F 30.14 in NW 3.2 mph -999.0 mph 45 % 0 in
19:14 70.3 °F 48.0 °F 30.14 in NNW 1.7 mph -999.0 mph 45 % 0 in
19:29 68.9 °F 46.7 °F 30.14 in Calm   -999.0 mph 45 % 0 in
19:44 66.9 °F 44.9 °F 30.14 in Calm   -999.0 mph 45 % 0 in
19:59 65.5 °F 44.7 °F 30.14 in South 1.7 mph -999.0 mph 47 % 0 in
20:15 64.8 °F 44.6 °F 30.15 in Calm   -999.0 mph 48 % 0 in
20:30 63.9 °F 44.4 °F 30.15 in Calm   -999.0 mph 49 % 0 in
20:45 63.3 °F 44.3 °F 30.16 in Calm   -999.0 mph 50 % 0 in
21:00 62.4 °F 45.5 °F 30.17 in Calm   -999.0 mph 54 % 0 in
21:15 61.9 °F 44.6 °F 30.17 in Calm   -999.0 mph 53 % 0 in
21:31 61.0 °F 43.7 °F 30.17 in Calm   -999.0 mph 53 % 0 in
21:46 60.3 °F 44.1 °F 30.17 in Calm   -999.0 mph 55 % 0 in
22:01 59.5 °F 43.3 °F 30.17 in Calm   -999.0 mph 55 % 0 in
22:16 59.0 °F 42.9 °F 30.17 in Calm   -999.0 mph 55 % 0 in
22:47 57.6 °F 43.4 °F 30.17 in Calm   -999.0 mph 59 % 0 in
23:02 57.2 °F 43.4 °F 30.17 in Calm   -999.0 mph 60 % 0 in
23:17 56.5 °F 42.8 °F 30.17 in Calm   -999.0 mph 60 % 0 in
23:32 55.9 °F 43.5 °F 30.18 in Calm   -999.0 mph 63 % 0 in
23:48 55.2 °F 44.8 °F 30.18 in Calm   -999.0 mph 68 % 0 in
Big Bear CA Weather
Compliments of Weather Underground - 1.5 mb